User: anonymous   Login
Location: St. Malo Provincial Park
(49.3214°N, 96.9305°W)
Time: 06:29:25
(UTC-06:00)
Language:

Iridium 6 - Orbit

View from above orbital plane
View from above orbital plane
View from above satellite
View from above satellite

Ground track
Ground track

The orbit data is extracted from the following two-line orbital elements,

1 24794U 97020C   16341.52313177  .00000173  00000-0  54564-4 0  9997
2 24794  86.3979  39.4485 0002172  96.2322 263.9121 14.34222347 25585
Epoch (UTC): 06 December 2016 12:33:18
Eccentricity: 0.0002172
inclination: 86.3979°
perigee height: 776 km
apogee height: 779 km
right ascension of ascending node: 39.4485°
argument of perigee: 96.2322°
revolutions per day: 14.34222347
mean anomaly at epoch: 263.9121°
orbit number at epoch: 2558

The dashed part of the orbit path shows where the satellite is in the earth's shadow,  

DLR